KLM615 EHAM-KPDX

Flight info

Callsign KLM615
Flight time N/A
Altitude 34000
Route BERGI L602 SUPUR P1 GODOS DCT ROKAN DCT GIGUL DCT ODMOS DCT NOBDO DCT UPNAL DCT DOKEN DCT GOMOT DCT ETSOM DCT ERAKA/M085F340 DCT 62N020W 65N030W 67N040W 67N050W/M085F360 DCT DARUB/N0489F360 DCT 6630N07000W 6530N08000W 6330N09000W 6030N10000W DCT RIDOK DCT YEGGA/N0482F380 DCT NOVAR DCT ONSET DCT EPH DCT JORAD HHOOD6
Aircraft B78X/H-SDE1E2E3FGHIJ2J3J4J5M1RWXY/LB1D1

Departure

Time 2026-05-06 11:43
Airport Amsterdam Airport Schiphol (EHAM)

Arrival

Time N/A
Airport Portland International Airport (KPDX)
Time Latitude Longitude Altitude Speed Heading
2026-05-06 10:58 52.31322 4.76662 4 ft 0 kts 123°
2026-05-06 11:28 52.31332 4.76638 5 ft 4 kts 133°
2026-05-06 11:29 52.31347 4.76612 6 ft 3 kts 134°
2026-05-06 11:29 52.31361 4.76586 6 ft 4 kts 100°
2026-05-06 11:29 52.31362 4.76561 7 ft 4 kts 52°
2026-05-06 11:29 52.31345 4.76533 7 ft 3 kts 34°
2026-05-06 11:30 52.31342 4.76531 7 ft 0 kts 34°
2026-05-06 11:33 52.31347 4.76536 7 ft 3 kts 34°
2026-05-06 11:34 52.31367 4.76558 7 ft 4 kts 33°
2026-05-06 11:34 52.31396 4.76570 4 ft 3 kts 352°
2026-05-06 11:34 52.31437 4.76509 5 ft 13 kts 310°
2026-05-06 11:34 52.31490 4.76387 5 ft 14 kts 303°
2026-05-06 11:35 52.31530 4.76238 5 ft 15 kts 282°
2026-05-06 11:35 52.31529 4.76047 5 ft 18 kts 265°
2026-05-06 11:35 52.31521 4.75840 5 ft 18 kts 267°
2026-05-06 11:35 52.31516 4.75631 4 ft 18 kts 268°
2026-05-06 11:36 52.31510 4.75429 4 ft 18 kts 267°
2026-05-06 11:36 52.31501 4.75199 4 ft 24 kts 266°
2026-05-06 11:36 52.31490 4.74921 5 ft 24 kts 266°
2026-05-06 11:36 52.31482 4.74663 5 ft 22 kts 268°
2026-05-06 11:37 52.31471 4.74418 5 ft 21 kts 265°
2026-05-06 11:37 52.31441 4.74201 5 ft 19 kts 234°
2026-05-06 11:37 52.31319 4.74134 5 ft 22 kts 185°
2026-05-06 11:37 52.31210 4.74123 5 ft 24 kts 184°
2026-05-06 11:38 52.31048 4.74107 4 ft 19 kts 183°
2026-05-06 11:38 52.30926 4.74097 4 ft 17 kts 182°
2026-05-06 11:38 52.30811 4.74089 4 ft 17 kts 182°
2026-05-06 11:38 52.30692 4.74080 5 ft 16 kts 184°
2026-05-06 11:39 52.30584 4.74068 5 ft 14 kts 182°
2026-05-06 11:39 52.30480 4.74062 5 ft 16 kts 182°
2026-05-06 11:39 52.30403 4.74057 5 ft 6 kts 182°
2026-05-06 11:39 52.30351 4.74048 5 ft 11 kts 195°
2026-05-06 11:40 52.30296 4.74001 5 ft 7 kts 212°
2026-05-06 11:40 52.30257 4.73958 4 ft 6 kts 216°
2026-05-06 11:40 52.30233 4.73928 4 ft 0 kts 217°
2026-05-06 11:40 52.30230 4.73925 4 ft 0 kts 217°
2026-05-06 11:41 52.30230 4.73924 4 ft 1 kts 217°
2026-05-06 11:41 52.30228 4.73921 4 ft 4 kts 218°
2026-05-06 11:42 52.30199 4.73847 4 ft 15 kts 257°
2026-05-06 11:42 52.30275 4.73743 2 ft 19 kts 357°
2026-05-06 11:42 52.30410 4.73758 3 ft 41 kts
2026-05-06 11:42 52.30906 4.73803 5 ft 103 kts
2026-05-06 11:43 52.31818 4.73879 5 ft 157 kts
2026-05-06 11:43 52.33001 4.73920 456 ft 167 kts
2026-05-06 11:43 52.34159 4.73986 1158 ft 169 kts
2026-05-06 11:44 52.36577 4.73001 2161 ft 198 kts 343°
2026-05-06 11:44 52.37901 4.72204 2655 ft 213 kts 343°
2026-05-06 11:44 52.39288 4.71000 3200 ft 233 kts 329°
2026-05-06 11:44 52.40684 4.69469 3755 ft 250 kts 330°
2026-05-06 11:45 52.42192 4.67955 4538 ft 257 kts 332°
2026-05-06 11:45 52.43733 4.66491 5395 ft 261 kts 332°
2026-05-06 11:45 52.45318 4.64957 6244 ft 267 kts 331°
2026-05-06 11:45 52.46924 4.63382 7050 ft 271 kts 331°
2026-05-06 11:46 52.48551 4.61791 7903 ft 274 kts 330°
2026-05-06 11:46 52.50208 4.60173 8751 ft 278 kts 330°
2026-05-06 11:46 52.51875 4.58543 9639 ft 281 kts 329°
2026-05-06 11:46 52.53574 4.56879 10332 ft 290 kts 329°
2026-05-06 11:47 52.55353 4.55135 10763 ft 306 kts 329°
2026-05-06 11:47 52.57237 4.53286 11134 ft 325 kts 329°
2026-05-06 11:47 52.59240 4.51319 11574 ft 341 kts 328°
2026-05-06 11:47 52.61299 4.49297 12294 ft 348 kts 328°
2026-05-06 11:48 52.63387 4.47243 13051 ft 353 kts 328°
2026-05-06 11:48 52.65455 4.45205 13810 ft 357 kts 328°
2026-05-06 11:48 52.67600 4.43089 14499 ft 361 kts 328°
2026-05-06 11:48 52.69708 4.41010 15198 ft 365 kts 327°
2026-05-06 11:49 52.71897 4.38846 15911 ft 368 kts 327°
2026-05-06 11:49 52.74054 4.36538 16604 ft 370 kts 317°
2026-05-06 11:49 52.75734 4.33348 17322 ft 369 kts 300°
2026-05-06 11:49 52.77012 4.29656 18000 ft 373 kts 298°
2026-05-06 11:50 52.78284 4.25890 18628 ft 377 kts 297°
2026-05-06 11:50 52.79566 4.22084 19195 ft 381 kts 297°
2026-05-06 11:50 52.80996 4.18390 19762 ft 386 kts 310°
2026-05-06 11:50 52.83013 4.15412 20348 ft 393 kts 323°
2026-05-06 11:51 52.85288 4.12848 20864 ft 398 kts 323°
2026-05-06 11:51 52.87595 4.10260 21399 ft 402 kts 323°
2026-05-06 11:51 52.89911 4.07634 21929 ft 406 kts 323°
2026-05-06 11:51 52.92244 4.04971 22457 ft 410 kts 323°
2026-05-06 11:52 52.94603 4.02283 22976 ft 413 kts 323°
2026-05-06 11:52 52.96981 3.99578 23476 ft 417 kts 323°
2026-05-06 11:52 52.99354 3.96870 23902 ft 420 kts 323°
2026-05-06 11:52 53.01801 3.94073 24334 ft 423 kts 322°
2026-05-06 11:53 53.04235 3.91286 24752 ft 426 kts 322°
2026-05-06 11:53 53.06657 3.88511 25160 ft 429 kts 322°
2026-05-06 11:53 53.09153 3.85648 25579 ft 432 kts 322°
2026-05-06 11:53 53.11597 3.82837 25972 ft 435 kts 322°
2026-05-06 11:54 53.14093 3.79965 26379 ft 437 kts 322°
2026-05-06 11:54 53.16597 3.77078 26777 ft 440 kts 322°
2026-05-06 11:54 53.19132 3.74152 27171 ft 443 kts 322°
2026-05-06 11:54 53.21673 3.71214 27548 ft 445 kts 322°
2026-05-06 11:55 53.24219 3.68268 27923 ft 448 kts 322°
2026-05-06 11:55 53.26788 3.65289 28290 ft 451 kts 322°
2026-05-06 11:55 53.29370 3.62291 28675 ft 453 kts 322°
2026-05-06 11:55 53.31966 3.59271 29017 ft 456 kts 322°
2026-05-06 11:56 53.34577 3.56230 29368 ft 458 kts 322°
2026-05-06 11:56 53.37201 3.53170 29715 ft 461 kts 322°
2026-05-06 11:56 53.39838 3.50089 30061 ft 463 kts 322°
2026-05-06 11:56 53.42490 3.46987 30349 ft 466 kts 322°
2026-05-06 11:57 53.45148 3.43872 30643 ft 468 kts 322°
2026-05-06 11:57 53.47824 3.40731 30930 ft 470 kts 322°
2026-05-06 11:57 53.50507 3.37577 31225 ft 472 kts 322°
2026-05-06 11:57 53.53198 3.34408 31518 ft 473 kts 322°
2026-05-06 11:58 53.55897 3.31226 31813 ft 475 kts 322°
2026-05-06 11:58 53.58603 3.28029 32103 ft 477 kts 322°
2026-05-06 11:58 53.61327 3.24808 32396 ft 478 kts 322°
2026-05-06 11:58 53.64172 3.21850 32703 ft 482 kts 333°
2026-05-06 11:59 53.67308 3.19846 33018 ft 486 kts 343°
2026-05-06 11:59 53.70641 3.18721 33268 ft 488 kts 345°
2026-05-06 11:59 53.73819 3.16890 33691 ft 481 kts 330°
2026-05-06 11:59 53.76646 3.13958 34097 ft 474 kts 317°
2026-05-06 12:00 53.79024 3.10160 34427 ft 469 kts 309°
2026-05-06 12:00 53.81146 3.05971 34688 ft 469 kts 307°
2026-05-06 12:00 53.83214 3.01713 34934 ft 470 kts 308°
2026-05-06 12:00 53.85392 2.97586 35208 ft 471 kts 313°
2026-05-06 12:01 53.87779 2.93846 35473 ft 473 kts 317°
2026-05-06 12:01 53.90296 2.90234 35729 ft 474 kts 316°
2026-05-06 12:01 53.92746 2.86491 35966 ft 473 kts 313°
2026-05-06 12:01 53.95089 2.82577 36223 ft 473 kts 313°
2026-05-06 12:02 53.99883 2.74896 36003 ft 474 kts 315°
2026-05-06 12:02 54.02304 2.71102 35804 ft 471 kts 314°
2026-05-06 12:02 54.04651 2.67311 35789 ft 461 kts 313°
2026-05-06 12:03 54.09224 2.59928 35725 ft 447 kts 314°
2026-05-06 12:03 54.13788 2.52590 35776 ft 457 kts 313°
2026-05-06 12:04 54.16105 2.48836 35884 ft 461 kts 313°
2026-05-06 12:04 54.18444 2.45054 36052 ft 465 kts 313°
2026-05-06 12:04 54.20790 2.41258 36220 ft 465 kts 313°
2026-05-06 12:04 54.23133 2.37457 36153 ft 464 kts 313°
2026-05-06 12:05 54.25477 2.33641 35950 ft 467 kts 313°
2026-05-06 12:05 54.27845 2.29779 35813 ft 474 kts 313°
2026-05-06 12:05 54.30238 2.25878 35707 ft 474 kts 313°
2026-05-06 12:05 54.32618 2.21996 35614 ft 473 kts 313°
2026-05-06 12:06 54.37382 2.14186 35692 ft 475 kts 313°
2026-05-06 12:06 54.39779 2.10247 35930 ft 475 kts 313°
2026-05-06 12:06 54.42153 2.06349 36277 ft 472 kts 313°
2026-05-06 12:07 54.44516 2.02454 36003 ft 472 kts 313°
2026-05-06 12:07 54.46874 1.98558 35889 ft 467 kts 313°
2026-05-06 12:07 54.51569 1.90786 36052 ft 470 kts 313°
2026-05-06 12:08 54.53930 1.86869 36298 ft 471 kts 313°
2026-05-06 12:08 54.56289 1.82950 36529 ft 472 kts 313°
2026-05-06 12:08 54.58657 1.79007 36733 ft 474 kts 313°
2026-05-06 12:08 54.61031 1.75048 36919 ft 475 kts 313°
2026-05-06 12:09 54.63404 1.71087 36788 ft 473 kts 313°
2026-05-06 12:09 54.65770 1.67128 36496 ft 474 kts 313°
2026-05-06 12:09 54.68109 1.63205 36217 ft 475 kts 312°
2026-05-06 12:09 54.70476 1.59231 35948 ft 474 kts 312°
2026-05-06 12:10 54.72832 1.55271 35687 ft 471 kts 312°
2026-05-06 12:10 54.75176 1.51322 35432 ft 470 kts 312°
2026-05-06 12:10 54.77514 1.47373 35212 ft 470 kts 312°